Regional Weather Roundup
Issued by NWS Grand Forks, ND

Home | Current Version | Previous Version | Text Only | Print | Product List | Glossary Off
Versions: 1 2 3 4 5 6 7 8 9 10 11 12 13 14 15 16 17 18 19 20 21 22 23 24 25 26 27 28 29 30 31 32 33 34 35 36 37 38 39 40 41 42 43 44 45 46 47 48 49 50

961
ASUS43 KFGF 222210
RWRFGF
PRAIRIE TO PINES  WEATHER ROUNDUP
NATIONAL WEATHER SERVICE EASTERN NORTH DAKOTA/GRAND FORKS ND
500 PM CDT FRI JUL 22 2016

 **SATELLITE DATA USED TO AUGMENT SKY COVER AT AUTOMATED STATIONS**
 *****  WEATHER ACROSS EASTERN NORTH DAKOTA  *****

CITY           SKY/WX    TMP DP  RH WIND       PRES   REMARKS
GRAND FORKS    CLOUDY    86  62  44 N9        30.01F
GRAND FRKS AFB PTSUNNY   84  63  50 E9        30.02F
GRAND FRKS NWS   N/A     82 N/A N/A NE3         N/A
DEVILS LAKE    MOSUNNY   81  64  56 NE6       30.03F
FARGO          CLOUDY    85  69  58 NE12      30.00R
WAHPETON ARPT  CLOUDY    82  68  61 SE5       30.00R
$$

 ***** WEATHER ACROSS CENTRAL AND WESTERN NORTH DAKOTA  *****

CITY           SKY/WX    TMP DP  RH WIND       PRES   REMARKS
BISMARCK       MOSUNNY   88  76  67 E16       29.97F HX  99
MINOT          MOSUNNY   89  62  40 E13       30.00F
JAMESTOWN      CLOUDY    83  72  69 E12G18    30.01S
MINOT AFB      PTSUNNY   83  60  45 E15       30.00F
GARRISON         N/A     85  64  49 E18G24    29.97F
WILLISTON      CLOUDY    94  56  27 SE12G20   29.95F HX  92
DICKINSON      MOSUNNY   88  71  57 E22G30    29.93F HX  94
HETTINGER      MOSUNNY   97  73  45 E21       29.93F THUNDER HX 107
$$

 *****  OTHER AIRPORT OBSERVATIONS IN OUR AREA  *****

CITY           SKY/WX    TMP DP  RH WIND       PRES   REMARKS
WALHALLA       FAIR      82  79  89 CALM      30.02F HX  93
GRAFTON AIRPOR FAIR      82  64  54 N6        30.04F
VALLEY CITY AR FAIR      82  73  74 NE15G21   30.05R
CANDO          NOT AVBL
CAVALIER APRT  FAIR      82  61  47 CALM      30.02F
GWINNER        FAIR      84  73  70 NE7       30.00R HX  91
SHEYENNE NWR     N/A     90  72  54 E7        29.95S HX  96
ROLLA            N/A     79  63  57 E8        30.07S
 ***** THE ABOVE OBSERVATIONS ARE NON NWS ARE NOT QUALITY
       CONTROLLED AND MAY MIS-REPORT RAIN FOR SNOW...
$$

  *****  WEATHER ACROSS NORTHERN MINNESOTA  *****

CITY           SKY/WX    TMP DP  RH WIND       PRES   REMARKS
FLAG ISLAND    SUNNY     81  57  44 NW9       29.98F
WARROAD        MOSUNNY   82  63  51 W7        30.01F
ROSEAU         PTSUNNY   82  64  54 W10G16    30.02S
HALLOCK        CLOUDY    82  64  54 N3        30.02F
THF RVR FALLS  SUNNY     83  60  45 N9        30.04F
BAUDETTE       SUNNY     85  58  39 NW9       30.00F
WASKISH        SUNNY     82  63  51 W8        30.02S
CROOKSTON      SUNNY     84  59  42 N6        30.03F
GREENBUSH NDAW   N/A     81  63  54 NW7         N/A
$$
  *****  WEATHER ACROSS CENTRAL AND WEST MINNESOTA  *****

CITY           SKY/WX    TMP DP  RH WIND       PRES   REMARKS
FOSSTON        CLOUDY    84  61  45 NW5       30.05S
BEMIDJI        CLOUDY    86  55  35 NW9       30.04S
PARK RAPIDS    CLOUDY    88  68  51 NW8       30.02F HX  91
ELBOW LAKE     FAIR      83  71  67 S6        30.01F HAZE
WADENA         CLOUDY    84  68  58 CALM      30.03F
DETROIT LAKES  CLOUDY    86  64  48 NW5       30.05S
MOORHEAD       CLOUDY    84  73  70 NE9       30.01R HX  91
FERGUS FALLS   CLOUDY    86  66  51 CALM      30.01R
MORRIS MN      PTSUNNY   88  68  51 CALM      30.01F HX  91
STAPLES        MOSUNNY   88  63  42 NW6       30.03F
$$
  *****  WEATHER ELSEWHERE ACROSS MINNESOTA  *****

CITY           SKY/WX    TMP DP  RH WIND       PRES   REMARKS
DULUTH         MOSUNNY   89  58  34 W13G21    30.00F
INTRNTL FALLS  SUNNY     83  58  42 NW14      29.99S
ELY            SUNNY     84  46  26 NW9G22    29.99F
CLOQUET        SUNNY     90  55  31 NW10G16   30.00F
WHEATON        NOT AVBL
BRAINERD       SUNNY     89  66  46 W5        30.02F HX  91
HIBBING        SUNNY     85  56  37 W9G18     30.01F
ALEXANDRIA     MOSUNNY   88  64  44 N6        30.06S
SAINT CLOUD    SUNNY     91  65  41 N3        30.01S HX  93
MINNEAPOLIS    MOSUNNY   95  54  25 SE10      29.98S HX  93
$$

  *****  WEATHER ACROSS SOUTH DAKOTA  *****

CITY           SKY/WX    TMP DP  RH WIND       PRES   REMARKS
SIOUX FALLS    PTSUNNY   92  79  65 NE15      29.96S HX 108
BROOKINGS      MOSUNNY   90  77  65 E10       30.02R HX 103
WATERTOWN      MOSUNNY   88  69  53 NE12      30.06R HX  92
HURON          CLOUDY    90  74  59 NE18      30.00R HX  99
SISSETON         N/A     82  66  58 SE3       29.97F
ABERDEEN       CLOUDY    79  71  76 N5        29.96R
MITCHELL       MOSUNNY   94  78  60 E17       29.96R HX 110
PIERRE         SUNNY     98  66  34 E20G25    29.90F HX 101
MOBRIDGE       CLOUDY    87  62  43 E21G28    29.94F
RAPID CITY     CLOUDY    92  58  31 SE14      29.97F HX  91
$$

  *****  SOME WEATHER IN NEARBY STATES *****

CITY           SKY/WX    TMP DP  RH WIND       PRES   REMARKS
GLASGOW MT     CLOUDY    89  51  27 SE13G23   29.86F
GREAT FALLS MT SUNNY     94  39  14 W10G20    29.86F HX  90
CHEYENNE WY    CLOUDY    79  46  31 S17G26    30.22S
SCOTTSBLUFF NE CLOUDY    92  61  35 E10       30.01F HX  92
OMAHA NE       PTSUNNY   94  80  64 SE17      29.91F HX 113
DES MOINES IA  CLOUDY    91  77  63 VRB5      29.96R HX 104
DAVENPORT IA   PTSUNNY   85  75  72 SW3       30.00F HX  93
CHICAGO IL     MOSUNNY   90  74  59 NW9       29.97F HX  99
EAU CLAIRE WI  SUNNY     93  58  30 VRB6      29.99R HX  92
LA CROSSE WI   SUNNY     93  75  55 W7        29.96S HX 104
$$

  *****  SOME NATIONAL WEATHER *****

CITY           SKY/WX    TMP DP  RH WIND       PRES   REMARKS
LA GUARDIA NY  MOSUNNY   97  67  37 W16G22    29.79F HX 101
RALEIGH NC     MOSUNNY   91  74  57 S14       29.99F HX 100
ATLANTA GA     PTSUNNY   92  69  47 W8        30.03F HX  97
NEW ORLEANS LA PTSUNNY   87  78  74 S6        30.05R HX 100
OKLAHOMA CITY  MOSUNNY   99  63  30 S13       29.99F HX 101
ALBUQUERQUE NM MOSUNNY   98  41  14 NW5       30.18F HX  93
SALT LAKE CITY MOSUNNY  102  41  12 NW15G25   30.04F HX  97
LOS ANGELES CA MOSUNNY   80  56  43 W14       29.89F
BOISE ID       SUNNY     89  42  19 NW13      30.09F
SEATTLE WA     CLOUDY    69  54  58 SW10      30.27S
$$

*** WEATHER ACROSS MANITOBA...SASKATCHEWAN AND ONTARIO ***
                ***ONTARIO***

CITY           SKY/WX    TMP DP  RH WIND       PRES   REMARKS
GERALDTON      MOSUNNY   79  57  47 NW12G18   29.84R
THUNDER BAY    MOSUNNY   88  57  35 NW12G26   29.87S
SIOUX LOOKOUT  MOSUNNY   82  55  39 NW15      29.92S
TORONTO        MOSUNNY   93  54  26 W22G29    29.83F HX  91
BIG TROUT LK   MOSUNNY   72  63  73 NW10      29.81R
PICKLE LAKE    LGT RAIN  73  59  60 NW7G22    29.87R
DRYDEN         MOSUNNY   82  54  36 W18G25    29.95S
KENORA         MOSUNNY   82  57  42 W13       29.99S
$$
                *** MANITOBA***

CITY           SKY/WX    TMP DP  RH WIND       PRES   REMARKS
BRANDON        MOSUNNY   82  61  47 N6        30.02F
DAUPHIN        SUNNY     82  57  42 W10       29.98F
ISLAND LAKE    PTSUNNY   75  52  43 NW13G22   29.92R
PILOT MOUND      N/A     81  57  44 NW3         N/A
THE PAS        MOSUNNY   73  52  46 NW5       29.97F
THOMPSON       MOSUNNY   68  39  34 W9        29.95S
WINNIPEG       MOSUNNY   81  64  57 NW8       30.01S
LYNN LAKE      MOSUNNY   64  41  42 MISG      29.93F
CHURCHILL      MOSUNNY   55  37  50 N10       29.88R
GILLAM         MOSUNNY   66  39  37 N14       29.92R
$$
                ***SASKATCHEWAN***

CITY           SKY/WX    TMP DP  RH WIND       PRES   REMARKS
ESTEVAN        PTSUNNY   81  61  50 E12       30.00F
KINDERSLEY     LGT RAIN  73  63  68 SE13      29.89S
LLOYDMINSTER   PTSUNNY   77  57  50 S14       29.91F
PRINCE ALBERT  PTSUNNY   77  57  50 S8        29.95F
REGINA         MOSUNNY   84  55  37 E15       29.97F
YORKTON        SUNNY     79  57  47 NE5       30.01F
N. BATTLEFORD  MOSUNNY   77  59  53 E13       29.94F
LA RONGE       MOSUNNY   72  52  49 S6        29.93F
SASKATOON      PTSUNNY   81  55  41 S10G18    29.98F
SWIFT CURRENT  SUNNY     81  59  47 SE20G35   29.90F
$$
NOTE: THESE ARE AUTOMATED STATIONS WITH LIMITED QUALITY CONTROL
      "FAIR" INDICATES FEW OR NO CLOUDS BELOW 12,000 FEET WITH NO
      SIGNIFICANT WEATHER AND/OR OBSTRUCTIONS TO VISIBILITY.
      SKY/WX - SKY CONDITION AND SIGNIFICANT WEATHER.
      TMP - AIR TEMPERATURE.    DP   - DEWPOINT TEMPERATURE.
      RH  - RELATIVE HUMIDITY.  PRES - PRESSURE.
      HX  - HEAT INDEX.         WCI  - WIND CHILL INDEX.
$




USA.gov is the U.S. government's official web portal to all federal, state and local government web resources and services.